Terug naar catalogus

STARLINK-30229

ActiefCommunicatieVLEO
NORAD 57461·PAYLOAD·🇺🇸 United States

Gelanceerd Jul 28, 2023 vanaf Cape Canaveral Space Force Station

Loading…

Volgende Passages (komende 24 uur)

TLE

VersSource: CelesTrak SupGP

Epoch: Sep 15, 2026, 01:37 UTC

1 57461C 23107E   26258.06784722  .00015824  00000+0  57303-3 0  2583
2 57461  43.0040 354.0052 0001803 268.9308  74.8665 15.27576737    10

Volg STARLINK-30229 in realtime met AllMySat

Download on the App Store